Voltar ao catálogo

STARLINK-35260

AtivoComunicaçõesVLEO
NORAD 65751·PAYLOAD·🇺🇸 United States

Lançado Sep 25, 2025 de Cape Canaveral Space Force Station

Loading…

Próximas Passagens (próximas 24 horas)

TLE

AtualizadoSource: CelesTrak SupGP

Época: Sep 14, 2026, 22:40 UTC

1 65751C 25216T   26257.94493056 -.00049797  00000+0 -14708-2 0  2578
2 65751  53.1578 171.6143 0001280  77.9990 169.0847 15.34424701    17

Acompanhe STARLINK-35260 em tempo real com AllMySat

Download on the App Store